Theta_e
328 319 316 313 298 296 292 297 304 304 305 315 318 316 316 319 320 313 330 343 341 344 351 357 360 360 359 358 358 360 361 362 361 362 360 360 359 357 355 353 350 347 345 342 339 337 336 337 337
322 318 311 307 294 289 294 304 302 305 308 317 318 317 317 319 328 328 335 341 340 346 351 353 359 359 359 358 357 358 360 361 360 359 358 358 358 356 354 351 348 345 343 340 337 336 336 337 336
325 324 307 299 294 293 295 303 306 310 313 316 315 320 319 322 328 326 341 342 340 344 347 352 359 358 358 358 356 356 357 359 359 359 358 357 356 355 353 350 347 344 341 338 337 337 337 337 337
317 316 310 294 293 299 302 306 309 309 311 317 317 315 321 330 327 332 349 344 340 341 345 357 358 358 358 357 356 355 355 357 358 357 357 356 355 354 352 349 347 346 342 341 340 339 339 338 339
316 306 294 292 296 302 307 309 309 308 308 311 315 313 318 330 331 340 348 347 342 338 346 354 358 358 358 357 356 355 354 354 355 356 355 354 354 353 351 348 345 344 346 344 342 342 343 344 344
305 304 292 291 297 303 306 306 306 307 308 309 312 316 318 329 330 334 341 342 343 338 348 350 357 357 357 357 355 354 353 352 352 353 353 352 352 351 349 348 346 346 348 347 346 346 346 345 346
310 300 294 296 297 300 304 307 305 305 306 308 311 311 318 326 329 331 333 336 340 346 347 348 351 354 357 356 354 353 352 352 351 351 351 351 351 350 349 348 347 348 348 348 348 348 347 346 347
312 304 301 302 300 300 308 307 306 305 307 313 314 309 316 328 331 327 331 331 340 347 347 346 347 349 350 350 354 353 352 351 351 351 351 350 350 350 349 347 347 348 348 348 348 348 348 348 348
309 298 298 301 302 304 309 307 311 312 308 311 312 317 326 330 330 324 323 328 344 347 346 346 345 346 346 347 350 353 352 352 351 351 351 348 342 342 343 346 345 348 349 349 349 348 349 349 349
303 297 300 308 309 307 309 311 311 309 308 309 311 324 325 328 327 326 320 320 337 343 346 346 344 343 342 345 345 346 345 345 345 344 343 342 338 335 342 343 347 347 348 349 349 349 348 347 341
305 300 307 309 312 312 311 311 314 310 307 309 308 313 321 323 326 326 327 324 329 342 347 346 345 342 339 338 342 345 344 343 344 341 339 339 339 336 338 335 339 337 346 339 344 343 343 340 339
298 306 309 310 312 311 309 312 311 312 310 315 316 315 315 319 321 326 326 327 330 333 339 345 344 341 337 337 342 342 341 341 341 341 338 338 337 333 332 331 332 333 336 336 335 338 339 339 338
299 301 303 307 310 311 312 310 310 311 315 317 318 317 315 316 320 321 322 324 324 328 332 342 343 340 338 339 342 342 341 341 340 340 340 338 337 333 332 330 331 332 332 336 334 335 335 337 337
298 300 301 303 303 305 308 309 311 312 316 317 317 316 316 315 321 320 321 323 325 330 335 339 342 341 341 340 340 342 343 344 342 341 340 339 337 336 334 331 332 331 332 335 336 333 334 335 336
298 293 297 301 302 302 303 301 305 313 314 314 315 316 317 317 317 319 321 323 325 327 332 340 342 344 342 341 341 345 347 346 344 344 343 340 338 337 336 336 331 333 335 334 336 334 333 333 337
293 292 286 294 300 303 301 294 302 308 312 311 313 315 316 317 317 317 320 323 326 325 328 340 348 347 346 344 345 344 345 344 344 342 346 344 341 339 340 336 335 333 336 335 335 335 334 333 333
289 284 287 291 297 297 297 296 303 306 306 309 312 314 315 316 317 318 321 322 328 327 327 331 345 349 349 349 349 349 348 346 345 342 341 347 345 342 340 340 339 337 336 336 333 330 330 328 328
285 286 289 290 293 294 292 294 299 302 305 305 309 312 314 315 316 318 320 324 328 329 329 332 337 350 352 348 347 345 342 340 339 341 342 346 347 346 341 342 340 341 336 334 333 329 331 328 329
293 291 290 293 297 294 293 294 297 300 300 300 305 307 311 313 316 318 319 321 326 331 331 332 333 337 339 339 335 334 332 333 337 340 344 342 348 347 345 342 341 340 338 334 333 332 329 328 331
292 289 289 293 296 294 293 292 296 298 298 300 301 305 309 312 314 316 317 319 321 330 331 331 330 333 335 335 336 334 333 334 335 340 341 345 347 347 345 342 340 340 338 335 334 331 326 328 331
291 289 289 289 294 294 292 289 292 297 299 301 302 304 307 311 313 315 316 317 326 331 332 333 334 334 334 336 338 337 336 337 340 338 339 345 346 348 346 343 340 341 341 336 334 330 329 327 328
288 295 294 292 288 283 291 281 289 293 295 297 300 302 304 307 312 313 315 316 325 331 332 333 333 332 333 333 336 336 335 333 335 339 343 345 347 346 345 344 342 341 341 335 332 336 333 329 324
291 296 293 292 288 284 286 282 287 291 291 294 297 300 303 306 309 312 313 314 318 328 328 328 330 332 335 337 339 336 334 336 337 340 342 342 343 344 345 343 341 343 340 335 334 335 333 330 327
296 292 291 290 285 279 284 284 284 288 290 294 297 300 302 306 307 312 312 313 315 323 326 327 327 330 333 337 338 335 332 336 338 339 342 342 341 341 343 345 342 342 338 337 336 335 332 331 328
291 286 279 277 277 278 287 284 286 292 296 297 297 300 302 303 304 308 312 312 314 316 316 323 323 326 333 335 337 337 336 337 338 340 341 341 339 337 339 343 343 339 339 337 337 334 332 330 327
288 287 282 275 275 279 288 281 286 295 298 299 301 301 302 303 305 308 311 312 312 315 316 318 320 321 330 333 336 339 341 341 341 342 342 341 340 339 340 342 341 341 339 337 335 333 331 330 328
287 283 289 282 284 278 282 287 292 297 299 300 300 301 301 303 306 310 309 309 310 312 313 314 315 325 331 334 340 338 340 341 343 342 343 341 339 340 341 341 342 339 337 336 333 331 330 329 327
290 292 281 282 275 275 280 282 284 292 294 296 297 297 300 303 306 309 310 313 323 325 326 326 321 329 333 338 342 341 341 344 345 345 342 341 340 341 341 339 337 335 335 334 332 329 330 328 327
287 285 287 287 284 278 276 280 295 293 294 294 296 299 300 303 306 308 309 321 324 324 325 325 324 326 332 340 340 341 343 345 345 343 342 342 342 342 340 338 335 334 333 333 330 329 329 328 327
293 289 287 282 281 283 281 282 297 296 296 298 297 299 303 306 305 309 321 323 324 324 324 325 331 337 340 342 342 343 342 343 341 338 338 339 339 339 338 336 334 334 333 331 329 328 329 328 326
Wind_Speed
5 6 3 3 3 2 7 11 15 16 10 4 7 8 8 5 7 7 10 13 16 16 16 17 22 21 19 19 17 16 15 13 13 13 12 12 12 11 11 10 10 9 9 8 7 7 6 6 6
5 4 2 3 3 3 8 19 17 14 10 7 9 7 8 4 8 8 8 17 19 16 15 16 23 21 20 19 18 17 15 14 13 12 12 12 11 11 10 10 9 9 8 8 8 7 6 6 5
5 4 2 4 4 9 7 5 12 18 18 8 5 4 3 6 7 17 16 19 18 13 14 16 23 22 20 20 18 17 16 15 14 14 13 12 12 11 10 10 9 9 8 8 8 7 6 5 5
3 2 4 0 10 14 18 18 17 17 10 6 6 4 4 12 15 13 21 22 18 13 12 20 23 22 21 20 20 18 16 15 15 15 14 14 13 11 10 10 9 9 10 9 9 7 6 6 5
1 2 2 4 12 15 16 15 12 14 11 1 7 4 6 4 14 25 22 20 20 15 11 16 21 21 21 20 19 19 17 16 15 15 15 14 13 12 11 11 10 10 10 10 10 8 7 7 6
3 2 2 7 15 16 12 10 11 18 8 8 6 3 2 12 23 20 18 17 18 19 14 14 19 20 20 19 19 18 18 17 15 15 14 13 12 12 12 12 11 11 11 10 9 9 8 7 6
7 2 6 9 14 17 17 7 8 11 14 6 4 3 5 7 21 19 19 17 16 14 14 13 13 16 20 19 18 18 18 17 16 15 14 14 13 13 13 13 12 12 11 10 9 9 8 7 7
4 2 10 11 12 19 15 5 6 6 15 12 9 2 2 2 7 10 15 15 17 14 13 12 11 12 12 11 18 17 17 17 16 16 15 15 14 14 14 13 12 13 12 11 10 10 9 9 9
4 3 11 15 14 13 15 9 8 7 6 11 7 4 3 6 8 7 7 11 13 12 14 13 12 10 11 9 12 15 17 16 15 14 15 12 5 7 11 11 14 14 13 12 11 11 10 9 10
7 5 12 12 14 15 12 16 15 8 9 12 13 2 7 6 3 1 2 9 15 14 14 15 14 12 11 9 9 7 7 7 7 7 7 5 6 6 10 12 16 15 15 14 12 12 11 10 4
6 14 12 16 19 17 16 15 15 5 10 11 7 15 2 6 8 7 7 7 14 19 13 16 16 14 13 10 8 6 6 5 6 8 7 6 6 7 7 5 7 6 15 6 9 7 5 6 5
15 18 17 18 21 23 22 16 17 14 9 15 13 12 9 11 9 9 4 6 1 16 18 18 18 17 15 9 9 9 8 7 6 9 10 8 7 7 7 5 7 7 6 7 6 5 7 8 10
19 17 17 16 20 21 21 21 17 20 11 15 15 14 11 12 7 6 3 5 3 11 10 19 17 16 14 12 10 9 9 8 9 9 12 10 10 9 7 6 6 7 7 8 8 7 8 9 10
7 14 15 16 18 15 18 20 19 21 15 13 16 12 12 8 10 3 7 4 7 1 10 9 15 15 16 12 12 10 9 9 9 10 11 15 10 9 7 9 6 6 8 7 8 9 8 9 9
10 10 15 16 13 18 7 15 24 21 18 19 13 16 14 10 8 10 11 9 9 4 6 10 10 9 12 10 9 6 6 7 8 9 12 16 13 10 11 7 9 6 7 10 7 7 6 5 8
7 7 6 3 8 14 9 24 24 11 17 21 18 15 18 16 12 8 10 9 10 8 10 12 11 11 9 8 8 6 6 5 6 6 8 13 15 14 9 9 7 8 5 6 6 8 8 6 5
5 8 11 17 9 11 9 20 24 17 15 14 18 17 17 19 11 11 9 10 10 11 9 11 11 13 12 8 7 7 8 6 6 5 5 11 13 14 12 7 7 7 7 4 4 4 5 4 3
7 9 11 15 5 8 11 18 19 12 20 21 13 18 18 18 20 16 12 10 10 10 10 11 11 13 9 6 5 3 4 5 5 5 6 9 10 13 11 7 6 6 4 5 3 4 3 3 4
8 13 14 15 13 15 13 15 21 14 15 16 21 17 16 19 20 18 17 10 9 9 11 11 11 10 6 3 3 2 4 3 3 5 7 8 9 12 11 5 6 5 5 6 5 3 5 1 3
8 14 16 14 10 14 12 20 20 18 17 18 20 19 18 19 19 20 17 17 14 12 15 13 14 11 7 5 4 4 3 4 3 5 7 7 10 12 11 8 6 6 4 5 5 4 2 2 3
8 8 12 15 12 15 10 16 24 25 18 17 20 19 13 18 19 18 17 17 10 14 14 12 12 11 8 9 4 2 1 2 1 3 4 5 10 12 11 9 6 6 6 5 4 5 6 4 1
12 12 17 16 9 10 6 17 11 18 25 21 20 19 17 9 17 19 18 15 10 13 14 15 14 12 9 9 6 8 7 6 4 5 3 6 9 8 8 9 7 6 4 6 5 5 4 5 4
13 18 20 20 13 5 7 8 16 10 20 23 20 20 22 15 11 18 15 11 9 7 8 10 10 8 8 10 12 9 6 4 4 3 8 6 6 8 8 8 6 6 5 5 6 6 5 4 4
14 11 18 12 3 10 12 11 18 16 17 21 23 22 24 22 11 14 14 11 9 10 12 11 12 12 14 12 12 11 10 7 5 4 7 6 4 5 7 8 6 7 6 6 6 5 7 5 4
6 7 5 6 3 9 11 12 15 13 14 19 20 23 20 23 25 15 18 15 9 11 11 13 14 13 12 13 12 12 12 9 9 7 8 9 5 3 6 6 6 5 5 6 6 6 6 5 4
4 4 5 6 6 12 9 7 13 15 15 17 21 21 19 21 24 22 16 16 11 10 10 10 11 10 10 12 13 11 9 7 6 8 9 8 7 6 7 7 7 7 7 6 6 4 4 5 5
7 7 11 7 11 3 6 11 12 15 14 21 21 23 26 26 26 10 9 10 9 9 9 10 10 12 13 13 10 11 10 8 8 9 9 9 7 6 8 8 7 7 8 8 7 4 5 5 4
5 8 7 5 6 7 6 13 7 14 18 22 23 26 29 22 33 1 2 2 5 6 4 3 7 11 12 12 11 9 8 7 9 11 11 10 8 8 9 8 7 7 8 7 7 5 5 6 3
8 5 3 4 3 3 6 3 2 9 7 13 18 23 25 25 29 6 5 3 4 2 3 4 8 10 9 9 8 8 7 8 11 8 9 10 10 10 11 9 8 8 8 7 6 6 6 6 6
7 8 3 2 3 5 5 8 7 8 6 10 16 23 22 21 20 17 3 3 2 6 7 6 8 10 11 11 8 9 7 10 10 9 10 10 12 11 10 8 8 8 7 7 7 7 6 7 7
Wind_Direction
302 273 262 309 55 111 248 254 243 269 281 199 113 76 125 117 135 189 133 122 137 150 151 156 149 150 149 143 139 138 138 140 142 141 143 144 144 147 148 149 148 147 145 140 146 145 138 131 122
314 271 285 261 123 254 263 243 261 260 264 109 74 69 64 85 117 140 103 145 150 152 150 159 150 149 151 146 143 140 144 144 147 151 154 153 156 159 161 164 164 162 159 158 161 158 151 144 133
290 260 91 167 208 229 255 293 291 298 301 111 100 91 31 134 100 140 127 137 136 150 159 160 152 151 154 148 146 147 147 151 153 159 161 165 169 170 174 180 176 173 176 174 170 170 167 158 152
297 326 303 92 259 261 243 277 291 303 320 67 102 69 84 130 136 150 140 138 140 153 160 159 152 153 152 151 152 153 155 157 163 168 170 174 180 178 182 188 182 186 188 186 180 177 187 181 179
206 284 234 248 253 260 267 270 282 292 296 216 132 215 179 107 125 138 144 144 146 155 151 155 154 153 154 155 157 158 160 164 170 173 178 183 183 181 188 191 187 196 200 195 189 188 198 199 202
317 196 315 236 264 268 281 314 340 331 287 318 331 179 213 145 132 145 145 147 150 150 145 153 155 155 155 156 162 164 164 170 175 180 181 184 185 186 190 193 192 198 208 203 196 194 201 208 216
229 276 244 265 275 287 280 309 320 322 324 315 294 5 14 116 146 155 153 145 143 135 139 147 155 159 158 163 165 170 169 173 178 185 184 187 189 190 194 196 197 202 211 207 202 202 208 215 224
251 187 266 267 268 267 293 305 321 318 312 321 345 291 89 325 174 135 149 141 137 136 137 143 151 160 159 164 168 175 178 179 182 189 188 191 192 197 200 198 201 208 214 212 209 209 214 222 229
318 219 242 244 251 277 303 327 313 277 325 326 311 31 146 40 61 132 151 130 123 140 143 147 154 165 163 157 174 180 187 187 189 194 195 192 182 197 206 201 205 211 217 214 213 214 218 223 233
205 209 234 254 258 265 277 307 310 349 327 313 320 66 115 92 9 149 239 157 151 154 159 156 160 167 165 170 169 174 182 187 189 190 187 181 185 196 203 205 208 210 217 217 214 218 220 225 224
218 239 256 262 274 287 294 305 315 305 299 285 303 328 267 162 177 254 196 189 174 169 163 165 159 168 170 177 164 175 187 181 189 188 179 179 195 212 209 197 206 203 216 209 209 213 212 210 218
256 241 237 245 255 274 277 286 290 288 255 279 296 305 321 293 192 200 190 202 172 173 168 172 164 167 175 172 171 173 177 181 186 195 181 183 202 202 211 197 193 189 205 192 194 200 200 213 225
255 267 268 258 246 242 263 267 272 274 273 267 283 298 309 324 217 159 227 197 253 185 170 176 170 166 173 173 172 175 182 184 193 190 193 195 198 204 196 200 191 186 195 191 202 199 204 215 227
289 286 277 270 265 264 248 255 259 260 270 270 272 281 292 290 285 272 277 259 265 141 163 168 177 172 168 178 175 180 178 184 190 198 193 198 198 196 193 199 200 185 196 192 200 204 205 213 219
325 322 306 277 280 274 310 279 243 245 251 255 268 274 280 281 268 259 219 203 238 202 130 166 165 154 174 175 171 171 174 174 193 203 193 194 194 192 196 193 205 201 191 195 198 216 214 204 217
298 278 279 270 280 282 259 271 272 282 238 237 241 250 270 269 271 261 251 218 197 195 166 179 173 172 170 179 191 187 195 186 207 191 196 191 195 194 187 196 197 207 191 178 182 206 221 222 196
260 269 275 286 254 277 262 266 262 261 265 250 232 230 240 265 268 272 248 234 220 188 168 160 164 176 178 182 192 183 199 197 214 212 191 188 193 192 194 186 190 192 203 200 180 186 176 181 184
248 260 266 267 276 257 263 269 275 277 250 254 249 229 230 240 257 264 273 252 210 201 172 160 152 169 172 180 184 190 202 215 201 209 203 173 188 189 182 190 179 178 176 192 176 180 187 158 176
290 299 295 303 325 326 301 291 294 305 298 304 261 236 223 227 239 255 260 267 228 199 165 161 145 159 146 136 162 185 210 210 217 211 197 194 172 183 179 163 176 186 173 191 182 168 177 190 137
317 306 301 303 297 288 307 299 294 297 290 292 291 279 230 217 226 237 251 254 242 200 185 172 171 165 164 152 183 163 173 222 198 197 198 186 160 166 176 179 174 186 158 185 177 157 129 167 151
280 270 290 285 288 281 302 287 296 294 286 285 285 280 274 226 208 223 238 240 241 199 176 169 170 174 170 179 146 176 239 305 194 218 187 179 158 158 163 166 171 182 170 174 168 166 153 169 51
305 315 311 299 282 273 224 277 261 291 294 293 294 295 276 263 245 225 235 241 209 193 177 175 178 181 186 176 170 181 206 205 208 184 168 156 157 158 157 169 168 163 157 160 170 168 158 124 161
310 333 304 300 284 314 282 281 286 299 290 292 288 286 289 263 227 234 221 215 198 213 188 181 176 178 184 183 191 189 192 195 186 164 151 150 152 156 159 159 169 164 168 161 161 166 155 150 144
315 337 308 287 271 265 276 252 273 271 274 271 277 281 285 289 255 224 229 210 206 181 184 189 185 198 203 191 189 179 184 182 186 162 159 167 153 154 155 165 155 167 159 164 172 165 152 154 147
341 8 337 330 320 267 280 280 270 273 293 295 297 295 301 288 280 265 224 225 206 190 187 197 192 198 195 193 191 185 182 175 190 172 164 158 159 149 167 147 146 161 151 147 135 141 148 163 171
274 196 205 251 266 279 295 257 275 278 283 285 280 296 281 278 280 274 219 205 205 205 200 186 183 198 197 196 194 180 164 180 186 171 161 157 165 161 153 155 160 157 140 131 130 133 158 162 172
279 263 261 287 284 288 250 266 275 347 10 350 345 341 335 335 290 239 200 172 181 186 202 209 205 199 193 193 176 169 165 164 175 164 158 155 150 159 150 153 149 153 135 137 138 148 162 160 166
243 286 327 5 316 290 291 287 290 9 354 348 344 339 325 321 314 344 6 170 133 137 148 174 183 179 176 163 159 155 161 162 160 157 158 160 153 151 143 142 145 144 132 139 142 151 168 164 171
6 357 43 180 243 245 274 283 94 50 16 335 330 328 323 325 316 307 241 140 126 161 215 172 169 153 150 142 139 144 161 160 161 148 148 155 150 146 147 147 141 136 136 146 148 172 174 170 168
163 234 242 218 213 262 231 265 122 123 67 21 323 327 322 308 319 298 99 100 261 242 241 193 169 140 144 143 146 156 138 137 134 122 121 133 136 143 143 142 145 145 149 155 164 179 183 169 172